Year,Month,Day,Hour,Minute,Value (Times are PST for temperature in C)
2010,08,21,00,00,12.10
2010,08,21,00,01,12.10
2010,08,21,00,02,12.10
2010,08,21,00,03,12.10
2010,08,21,00,04,12.10
2010,08,21,00,05,12.00
2010,08,21,00,06,12.00
2010,08,21,00,07,12.00
2010,08,21,00,08,12.00
2010,08,21,00,09,12.00
2010,08,21,00,10,12.00
2010,08,21,00,11,12.00
2010,08,21,00,12,11.90
2010,08,21,00,13,12.00
2010,08,21,00,14,11.90
2010,08,21,00,15,11.90
2010,08,21,00,16,11.90
2010,08,21,00,17,11.90
2010,08,21,00,18,11.90
2010,08,21,00,19,11.90
2010,08,21,00,20,11.90
2010,08,21,00,21,11.90
2010,08,21,00,22,11.90
2010,08,21,00,23,11.90
2010,08,21,00,24,11.90
2010,08,21,00,25,11.90
2010,08,21,00,26,11.90
2010,08,21,00,27,11.90
2010,08,21,00,28,11.90
2010,08,21,00,29,11.90
2010,08,21,00,30,11.90
2010,08,21,00,31,11.80
2010,08,21,00,32,11.80
2010,08,21,00,33,11.80
2010,08,21,00,34,11.80
2010,08,21,00,35,11.80
2010,08,21,00,36,11.80
2010,08,21,00,37,11.80
2010,08,21,00,38,11.80
2010,08,21,00,39,11.80
2010,08,21,00,40,11.80
2010,08,21,00,41,11.80
2010,08,21,00,42,11.80
2010,08,21,00,43,11.80
2010,08,21,00,44,11.70
2010,08,21,00,45,11.70
2010,08,21,00,46,11.70
2010,08,21,00,47,11.70
2010,08,21,00,48,11.70
2010,08,21,00,49,11.70
2010,08,21,00,50,11.70
2010,08,21,00,51,11.70
2010,08,21,00,52,11.70
2010,08,21,00,53,11.70
2010,08,21,00,54,11.60
2010,08,21,00,55,11.60
2010,08,21,00,56,11.60
2010,08,21,00,57,11.60
2010,08,21,00,58,11.60
2010,08,21,00,59,11.60
2010,08,21,01,00,11.60
2010,08,21,01,01,11.60
2010,08,21,01,02,11.60
2010,08,21,01,06,11.50
2010,08,21,01,07,11.50
2010,08,21,01,08,11.50
2010,08,21,01,09,11.40
2010,08,21,01,10,11.40
2010,08,21,01,11,11.40
2010,08,21,01,12,11.40
2010,08,21,01,13,11.40
2010,08,21,01,14,11.40
2010,08,21,01,15,11.30
2010,08,21,01,16,11.30
2010,08,21,01,17,11.30
2010,08,21,01,18,11.30
2010,08,21,01,19,11.30
2010,08,21,01,20,11.30
2010,08,21,01,21,11.30
2010,08,21,01,22,11.30
2010,08,21,01,23,11.30
2010,08,21,01,24,11.30
2010,08,21,01,25,11.20
2010,08,21,01,26,11.20
2010,08,21,01,27,11.20
2010,08,21,01,28,11.20
2010,08,21,01,29,11.20
2010,08,21,01,30,11.20
2010,08,21,01,31,11.20
2010,08,21,01,32,11.10
2010,08,21,01,33,11.10
2010,08,21,01,34,11.10
2010,08,21,01,35,11.10
2010,08,21,01,36,11.10
2010,08,21,01,37,11.00
2010,08,21,01,38,11.00
2010,08,21,01,39,11.00
2010,08,21,01,40,10.90
2010,08,21,01,41,10.90
2010,08,21,01,42,10.90
2010,08,21,01,43,10.90
2010,08,21,01,44,10.90
2010,08,21,01,45,10.80
2010,08,21,01,46,10.80
2010,08,21,01,47,10.80
2010,08,21,01,48,10.80
2010,08,21,01,49,10.80
2010,08,21,01,50,10.80
2010,08,21,01,51,10.80
2010,08,21,01,52,10.80
2010,08,21,01,53,10.80
2010,08,21,01,54,10.70
2010,08,21,01,55,10.70
2010,08,21,01,56,10.70
2010,08,21,01,57,10.70
2010,08,21,01,58,10.70
2010,08,21,01,59,10.70
2010,08,21,02,00,10.70
2010,08,21,02,01,10.70
2010,08,21,02,02,10.70
2010,08,21,02,03,10.70
2010,08,21,02,04,10.70
2010,08,21,02,05,10.70
2010,08,21,02,06,10.70
2010,08,21,02,07,10.70
2010,08,21,02,08,10.70
2010,08,21,02,09,10.60
2010,08,21,02,10,10.60
2010,08,21,02,11,10.60
2010,08,21,02,12,10.60
2010,08,21,02,13,10.60
2010,08,21,02,14,10.60
2010,08,21,02,15,10.60
2010,08,21,02,16,10.60
2010,08,21,02,17,10.60
2010,08,21,02,18,10.60
2010,08,21,02,19,10.60
2010,08,21,02,20,10.60
2010,08,21,02,21,10.60
2010,08,21,02,22,10.60
2010,08,21,02,23,10.60
2010,08,21,02,24,10.60
2010,08,21,02,25,10.50
2010,08,21,02,26,10.50
2010,08,21,02,27,10.50
2010,08,21,02,28,10.50
2010,08,21,02,29,10.50
2010,08,21,02,30,10.40
2010,08,21,02,31,10.40
2010,08,21,02,32,10.40
2010,08,21,02,33,10.40
2010,08,21,02,34,10.40
2010,08,21,02,35,10.40
2010,08,21,02,36,10.40
2010,08,21,02,37,10.40
2010,08,21,02,38,10.40
2010,08,21,02,39,10.40
2010,08,21,02,40,10.40
2010,08,21,02,41,10.40
2010,08,21,02,42,10.40
2010,08,21,02,43,10.30
2010,08,21,02,44,10.30
2010,08,21,02,45,10.30
2010,08,21,02,46,10.30
2010,08,21,02,47,10.30
2010,08,21,02,48,10.30
2010,08,21,02,49,10.30
2010,08,21,02,50,10.30
2010,08,21,02,51,10.30
2010,08,21,02,52,10.30
2010,08,21,02,53,10.30
2010,08,21,02,54,10.30
2010,08,21,02,55,10.30
2010,08,21,02,56,10.30
2010,08,21,02,57,10.30
2010,08,21,02,58,10.30
2010,08,21,02,59,10.30
2010,08,21,03,00,10.20
2010,08,21,03,01,10.20
2010,08,21,03,02,10.20
2010,08,21,03,03,10.20
2010,08,21,03,04,10.20
2010,08,21,03,05,10.20
2010,08,21,03,06,10.20
2010,08,21,03,07,10.20
2010,08,21,03,08,10.20
2010,08,21,03,09,10.20
2010,08,21,03,10,10.20
2010,08,21,03,11,10.20
2010,08,21,03,12,10.20
2010,08,21,03,13,10.20
2010,08,21,03,14,10.20
2010,08,21,03,15,10.20
2010,08,21,03,16,10.20
2010,08,21,03,17,10.20
2010,08,21,03,18,10.20
2010,08,21,03,19,10.20
2010,08,21,03,20,10.20
2010,08,21,03,21,10.20
2010,08,21,03,22,10.20
2010,08,21,03,23,10.20
2010,08,21,03,24,10.20
2010,08,21,03,25,10.20
2010,08,21,03,26,10.20
2010,08,21,03,27,10.20
2010,08,21,03,28,10.20
2010,08,21,03,29,10.20
2010,08,21,03,30,10.20
2010,08,21,03,31,10.20
2010,08,21,03,32,10.20
2010,08,21,03,33,10.20
2010,08,21,03,34,10.20
2010,08,21,03,35,10.20
2010,08,21,03,36,10.20
2010,08,21,03,37,10.20
2010,08,21,03,38,10.20
2010,08,21,03,39,10.20
2010,08,21,03,40,10.20
2010,08,21,03,41,10.20
2010,08,21,03,42,10.10
2010,08,21,03,43,10.10
2010,08,21,03,44,10.10
2010,08,21,03,45,10.10
2010,08,21,03,46,10.10
2010,08,21,03,47,10.10
2010,08,21,03,48,10.10
2010,08,21,03,49,10.10
2010,08,21,03,50,10.10
2010,08,21,03,51,10.10
2010,08,21,03,52,10.10
2010,08,21,03,53,10.10
2010,08,21,03,54,10.10
2010,08,21,03,55,10.20
2010,08,21,03,56,10.20
2010,08,21,03,57,10.20
2010,08,21,03,58,10.20
2010,08,21,03,59,10.20
2010,08,21,04,00,10.20
2010,08,21,04,01,10.30
2010,08,21,04,02,10.30
2010,08,21,04,03,10.30
2010,08,21,04,04,10.30
2010,08,21,04,05,10.30
2010,08,21,04,06,10.30
2010,08,21,04,07,10.40
2010,08,21,04,08,10.40
2010,08,21,04,09,10.40
2010,08,21,04,10,10.40
2010,08,21,04,11,10.40
2010,08,21,04,12,10.40
2010,08,21,04,13,10.40
2010,08,21,04,14,10.40
2010,08,21,04,15,10.40
2010,08,21,04,16,10.40
2010,08,21,04,17,10.40
2010,08,21,04,18,10.30
2010,08,21,04,19,10.30
2010,08,21,04,20,10.30
2010,08,21,04,21,10.30
2010,08,21,04,22,10.30
2010,08,21,04,23,10.20
2010,08,21,04,24,10.20
2010,08,21,04,25,10.20
2010,08,21,04,26,10.20
2010,08,21,04,27,10.10
2010,08,21,04,28,10.10
2010,08,21,04,29,10.10
2010,08,21,04,30,10.10
2010,08,21,04,31,10.10
2010,08,21,04,32,10.10
2010,08,21,04,33,10.10
2010,08,21,04,34,10.10
2010,08,21,04,35,10.10
2010,08,21,04,36,10.10
2010,08,21,04,37,10.10
2010,08,21,04,38,10.10
2010,08,21,04,39,10.10
2010,08,21,04,40,10.10
2010,08,21,04,41,10.10
2010,08,21,04,42,10.10
2010,08,21,04,43,10.10
2010,08,21,04,44,10.10
2010,08,21,04,45,10.10
2010,08,21,04,46,10.10
2010,08,21,04,47,10.10
2010,08,21,04,48,10.10
2010,08,21,04,49,10.10
2010,08,21,04,50,10.10
2010,08,21,04,51,10.10
2010,08,21,04,52,10.10
2010,08,21,04,53,10.10
2010,08,21,04,54,10.10
2010,08,21,04,55,10.10
2010,08,21,04,56,10.10
2010,08,21,04,57,10.10
2010,08,21,04,58,10.10
2010,08,21,04,59,10.10
2010,08,21,05,00,10.10
2010,08,21,05,01,10.10
2010,08,21,05,02,10.10
2010,08,21,05,03,10.10
2010,08,21,05,04,10.10
2010,08,21,05,05,10.10
2010,08,21,05,06,10.10
2010,08,21,05,07,10.10
2010,08,21,05,08,10.00
2010,08,21,05,09,10.00
2010,08,21,05,10,10.00
2010,08,21,05,11,9.90
2010,08,21,05,12,9.90
2010,08,21,05,13,9.90
2010,08,21,05,14,9.90
2010,08,21,05,15,9.90
2010,08,21,05,16,9.90
2010,08,21,05,17,9.90
2010,08,21,05,18,9.90
2010,08,21,05,19,9.90
2010,08,21,05,20,9.90
2010,08,21,05,21,9.90
2010,08,21,05,22,9.90
2010,08,21,05,23,9.90
2010,08,21,05,24,9.80
2010,08,21,05,25,9.80
2010,08,21,05,26,9.80
2010,08,21,05,27,9.80
2010,08,21,05,28,9.80
2010,08,21,05,29,9.80
2010,08,21,05,30,9.70
2010,08,21,05,31,9.70
2010,08,21,05,32,9.70
2010,08,21,05,33,9.70
2010,08,21,05,34,9.70
2010,08,21,05,35,9.70
2010,08,21,05,36,9.60
2010,08,21,05,37,9.60
2010,08,21,05,38,9.60
2010,08,21,05,39,9.60
2010,08,21,05,40,9.60
2010,08,21,05,41,9.60
2010,08,21,05,42,9.60
2010,08,21,05,43,9.60
2010,08,21,05,44,9.60
2010,08,21,05,45,9.60
2010,08,21,05,46,9.50
2010,08,21,05,47,9.50
2010,08,21,05,48,9.50
2010,08,21,05,49,9.50
2010,08,21,05,50,9.50
2010,08,21,05,51,9.50
2010,08,21,05,52,9.50
2010,08,21,05,53,9.50
2010,08,21,05,54,9.40
2010,08,21,05,55,9.40
2010,08,21,05,56,9.40
2010,08,21,05,57,9.50
2010,08,21,05,58,9.50
2010,08,21,05,59,9.50
2010,08,21,06,00,9.50
2010,08,21,06,01,9.50
2010,08,21,06,02,9.50
2010,08,21,06,03,9.50
2010,08,21,06,04,9.60
2010,08,21,06,05,9.60
2010,08,21,06,06,9.60
2010,08,21,06,07,9.60
2010,08,21,06,08,9.60
2010,08,21,06,09,9.60
2010,08,21,06,10,9.60
2010,08,21,06,11,9.60
2010,08,21,06,12,9.60
2010,08,21,06,13,9.60
2010,08,21,06,14,9.60
2010,08,21,06,15,9.60
2010,08,21,06,16,9.60
2010,08,21,06,17,9.60
2010,08,21,06,18,9.60
2010,08,21,06,19,9.60
2010,08,21,06,20,9.60
2010,08,21,06,21,9.70
2010,08,21,06,22,9.70
2010,08,21,06,23,9.70
2010,08,21,06,24,9.70
2010,08,21,06,25,9.70
2010,08,21,06,26,9.70
2010,08,21,06,27,9.70
2010,08,21,06,28,9.70
2010,08,21,06,29,9.70
2010,08,21,06,30,9.70
2010,08,21,06,31,9.70
2010,08,21,06,32,9.60
2010,08,21,06,33,9.60
2010,08,21,06,34,9.60
2010,08,21,06,35,9.60
2010,08,21,06,36,9.60
2010,08,21,06,37,9.60
2010,08,21,06,38,9.60
2010,08,21,06,39,9.60
2010,08,21,06,40,9.60
2010,08,21,06,41,9.60
2010,08,21,06,42,9.60
2010,08,21,06,43,9.60
2010,08,21,06,44,9.60
2010,08,21,06,45,9.60
2010,08,21,06,46,9.60
2010,08,21,06,47,9.60
2010,08,21,06,48,9.60
2010,08,21,06,49,9.60
2010,08,21,06,50,9.60
2010,08,21,06,51,9.60
2010,08,21,06,52,9.60
2010,08,21,06,53,9.60
2010,08,21,06,54,9.60
2010,08,21,06,55,9.60
2010,08,21,06,56,9.60
2010,08,21,06,57,9.60
2010,08,21,06,58,9.70
2010,08,21,06,59,9.70
2010,08,21,07,00,9.70
2010,08,21,07,01,9.70
2010,08,21,07,02,9.70
2010,08,21,07,03,9.70
2010,08,21,07,04,9.70
2010,08,21,07,05,9.70
2010,08,21,07,06,9.70
2010,08,21,07,07,9.70
2010,08,21,07,08,9.70
2010,08,21,07,09,9.70
2010,08,21,07,10,9.70
2010,08,21,07,11,9.70
2010,08,21,07,12,9.70
2010,08,21,07,13,9.70
2010,08,21,07,14,9.70
2010,08,21,07,15,9.70
2010,08,21,07,16,9.80
2010,08,21,07,17,9.80
2010,08,21,07,18,9.80
2010,08,21,07,19,9.80
2010,08,21,07,20,9.80
2010,08,21,07,21,9.80
2010,08,21,07,22,9.80
2010,08,21,07,23,9.80
2010,08,21,07,24,9.80
2010,08,21,07,25,9.80
2010,08,21,07,26,9.80
2010,08,21,07,27,9.80
2010,08,21,07,28,9.80
2010,08,21,07,29,9.90
2010,08,21,07,30,9.90
2010,08,21,07,31,9.90
2010,08,21,07,32,9.90
2010,08,21,07,33,9.90
2010,08,21,07,34,9.90
2010,08,21,07,35,9.90
2010,08,21,07,36,9.90
2010,08,21,07,37,10.00
2010,08,21,07,38,10.00
2010,08,21,07,39,10.00
2010,08,21,07,40,10.00
2010,08,21,07,41,10.00
2010,08,21,07,42,10.00
2010,08,21,07,43,10.10
2010,08,21,07,44,10.10
2010,08,21,07,45,10.10
2010,08,21,07,46,10.10
2010,08,21,07,47,10.10
2010,08,21,07,48,10.10
2010,08,21,07,49,10.20
2010,08,21,07,50,10.20
2010,08,21,07,51,10.20
2010,08,21,07,52,10.20
2010,08,21,07,53,10.30
2010,08,21,07,54,10.30
2010,08,21,07,55,10.30
2010,08,21,07,56,10.30
2010,08,21,07,57,10.30
2010,08,21,07,58,10.30
2010,08,21,07,59,10.40
2010,08,21,08,00,10.40
2010,08,21,08,01,10.40
2010,08,21,08,02,10.50
2010,08,21,08,03,10.50
2010,08,21,08,04,10.50
2010,08,21,08,05,10.60
2010,08,21,08,06,10.60
2010,08,21,08,07,10.60
2010,08,21,08,08,10.60
2010,08,21,08,09,10.60
2010,08,21,08,10,10.60
2010,08,21,08,11,10.60
2010,08,21,08,12,10.60
2010,08,21,08,13,10.60
2010,08,21,08,14,10.60
2010,08,21,08,15,10.60
2010,08,21,08,16,10.70
2010,08,21,08,17,10.70
2010,08,21,08,18,10.70
2010,08,21,08,19,10.60
2010,08,21,08,20,10.70
2010,08,21,08,21,10.70
2010,08,21,08,22,10.70
2010,08,21,08,23,10.70
2010,08,21,08,24,10.70
2010,08,21,08,25,10.70
2010,08,21,08,26,10.70
2010,08,21,08,27,10.70
2010,08,21,08,28,10.70
2010,08,21,08,29,10.70
2010,08,21,08,30,10.70
2010,08,21,08,31,10.70
2010,08,21,08,32,10.80
2010,08,21,08,33,10.80
2010,08,21,08,34,10.80
2010,08,21,08,35,10.80
2010,08,21,08,36,10.80
2010,08,21,08,37,10.80
2010,08,21,08,38,10.90
2010,08,21,08,39,10.90
2010,08,21,08,40,10.90
2010,08,21,08,41,10.90
2010,08,21,08,42,11.00
2010,08,21,08,43,11.00
2010,08,21,08,44,11.00
2010,08,21,08,45,11.10
2010,08,21,08,46,11.10
2010,08,21,08,47,11.20
2010,08,21,08,48,11.20
2010,08,21,08,49,11.20
2010,08,21,08,50,11.20
2010,08,21,08,51,11.30
2010,08,21,08,52,11.30
2010,08,21,08,53,11.40
2010,08,21,08,54,11.40
2010,08,21,08,55,11.50
2010,08,21,08,56,11.50
2010,08,21,08,57,11.60
2010,08,21,08,58,11.60
2010,08,21,08,59,11.70
2010,08,21,09,00,11.70
2010,08,21,09,01,11.70
2010,08,21,09,02,11.80
2010,08,21,09,03,11.80
2010,08,21,09,04,11.90
2010,08,21,09,05,11.90
2010,08,21,09,06,12.00
2010,08,21,09,07,12.00
2010,08,21,09,08,12.10
2010,08,21,09,09,12.10
2010,08,21,09,10,12.20
2010,08,21,09,11,12.20
2010,08,21,09,12,12.30
2010,08,21,09,13,12.30
2010,08,21,09,14,12.30
2010,08,21,09,15,12.40
2010,08,21,09,16,12.40
2010,08,21,09,17,12.50
2010,08,21,09,18,12.50
2010,08,21,09,19,12.60
2010,08,21,09,20,12.60
2010,08,21,09,21,12.70
2010,08,21,09,22,12.70
2010,08,21,09,23,12.80
2010,08,21,09,24,12.80
2010,08,21,09,25,12.90
2010,08,21,09,26,12.90
2010,08,21,09,27,13.00
2010,08,21,09,28,13.00
2010,08,21,09,29,13.10
2010,08,21,09,30,13.10
2010,08,21,09,31,13.20
2010,08,21,09,32,13.20
2010,08,21,09,33,13.30
2010,08,21,09,34,13.40
2010,08,21,09,35,13.40
2010,08,21,09,36,13.50
2010,08,21,09,37,13.60
2010,08,21,09,38,13.60
2010,08,21,09,39,13.70
2010,08,21,09,40,13.70
2010,08,21,09,41,13.80
2010,08,21,09,42,13.80
2010,08,21,09,43,13.90
2010,08,21,09,44,14.00
2010,08,21,09,45,14.00
2010,08,21,09,46,14.10
2010,08,21,09,47,14.20
2010,08,21,09,48,14.20
2010,08,21,09,49,14.30
2010,08,21,09,50,14.30
2010,08,21,09,51,14.40
2010,08,21,09,52,14.40
2010,08,21,09,53,14.50
2010,08,21,09,54,14.60
2010,08,21,09,55,14.60
2010,08,21,09,56,14.70
2010,08,21,09,57,14.80
2010,08,21,09,58,14.80
2010,08,21,09,59,14.90
2010,08,21,10,00,15.00
2010,08,21,10,01,15.00
2010,08,21,10,02,15.00
2010,08,21,10,03,15.00
2010,08,21,10,04,15.00
2010,08,21,10,05,15.10
2010,08,21,10,06,15.20
2010,08,21,10,07,15.20
2010,08,21,10,08,15.30
2010,08,21,10,09,15.30
2010,08,21,10,10,15.40
2010,08,21,10,11,15.40
2010,08,21,10,12,15.50
2010,08,21,10,13,15.60
2010,08,21,10,14,15.60
2010,08,21,10,15,15.70
2010,08,21,10,16,15.70
2010,08,21,10,17,15.80
2010,08,21,10,18,15.80
2010,08,21,10,19,15.80
2010,08,21,10,20,15.90
2010,08,21,10,21,15.90
2010,08,21,10,22,15.90
2010,08,21,10,23,16.00
2010,08,21,10,24,16.00
2010,08,21,10,25,16.10
2010,08,21,10,26,16.10
2010,08,21,10,27,16.10
2010,08,21,10,28,16.20
2010,08,21,10,29,16.20
2010,08,21,10,30,16.20
2010,08,21,10,31,16.30
2010,08,21,10,32,16.30
2010,08,21,10,33,16.30
2010,08,21,10,34,16.40
2010,08,21,10,35,16.40
2010,08,21,10,36,16.50
2010,08,21,10,37,16.50
2010,08,21,10,38,16.60
2010,08,21,10,39,16.70
2010,08,21,10,40,16.70
2010,08,21,10,41,16.80
2010,08,21,10,42,16.80
2010,08,21,10,43,16.90
2010,08,21,10,44,17.10
2010,08,21,10,45,17.20
2010,08,21,10,46,17.30
2010,08,21,10,47,17.40
2010,08,21,10,48,17.50
2010,08,21,10,49,17.60
2010,08,21,10,50,17.70
2010,08,21,10,51,17.80
2010,08,21,10,52,17.80
2010,08,21,10,53,17.80
2010,08,21,10,54,17.90
2010,08,21,10,55,17.90
2010,08,21,10,56,17.90
2010,08,21,10,57,18.00
2010,08,21,10,58,18.10
2010,08,21,10,59,18.10
2010,08,21,11,00,18.20
2010,08,21,11,01,18.20
2010,08,21,11,02,18.30
2010,08,21,11,03,18.40
2010,08,21,11,04,18.50
2010,08,21,11,05,18.50
2010,08,21,11,06,18.60
2010,08,21,11,07,18.70
2010,08,21,11,08,18.80
2010,08,21,11,09,18.90
2010,08,21,11,10,18.90
2010,08,21,11,11,19.00
2010,08,21,11,12,19.10
2010,08,21,11,13,19.20
2010,08,21,11,14,19.20
2010,08,21,11,15,19.30
2010,08,21,11,16,19.40
2010,08,21,11,17,19.50
2010,08,21,11,18,19.50
2010,08,21,11,19,19.60
2010,08,21,11,20,19.60
2010,08,21,11,21,19.70
2010,08,21,11,22,19.70
2010,08,21,11,23,19.70
2010,08,21,11,24,19.70
2010,08,21,11,25,19.70
2010,08,21,11,26,19.70
2010,08,21,11,27,19.80
2010,08,21,11,28,19.80
2010,08,21,11,29,19.80
2010,08,21,11,30,19.80
2010,08,21,11,31,19.80
2010,08,21,11,32,19.80
2010,08,21,11,33,19.80
2010,08,21,11,34,19.90
2010,08,21,11,35,19.90
2010,08,21,11,36,19.90
2010,08,21,11,37,19.90
2010,08,21,11,38,19.90
2010,08,21,11,39,19.90
2010,08,21,11,40,19.90
2010,08,21,11,41,20.00
2010,08,21,11,42,20.00
2010,08,21,11,43,20.00
2010,08,21,11,44,20.10
2010,08,21,11,45,20.10
2010,08,21,11,46,20.10
2010,08,21,11,47,20.10
2010,08,21,11,48,20.10
2010,08,21,11,49,20.10
2010,08,21,11,50,20.00
2010,08,21,11,51,20.10
2010,08,21,11,52,20.10
2010,08,21,11,53,20.10
2010,08,21,11,54,20.10
2010,08,21,11,55,20.10
2010,08,21,11,56,20.10
2010,08,21,11,57,20.10
2010,08,21,11,58,20.10
2010,08,21,11,59,20.10
2010,08,21,12,00,20.10
2010,08,21,12,01,20.10
2010,08,21,12,02,20.10
2010,08,21,12,03,20.00
2010,08,21,12,04,20.00
2010,08,21,12,05,20.00
2010,08,21,12,06,20.00
2010,08,21,12,07,20.00
2010,08,21,12,08,20.00
2010,08,21,12,09,20.00
2010,08,21,12,10,20.00
2010,08,21,12,11,20.10
2010,08,21,12,12,20.10
2010,08,21,12,13,20.10
2010,08,21,12,14,20.20
2010,08,21,12,15,20.20
2010,08,21,12,16,20.20
2010,08,21,12,17,20.20
2010,08,21,12,18,20.20
2010,08,21,12,19,20.30
2010,08,21,12,20,20.30
2010,08,21,12,21,20.40
2010,08,21,12,22,20.40
2010,08,21,12,23,20.50
2010,08,21,12,24,20.50
2010,08,21,12,25,20.60
2010,08,21,12,26,20.70
2010,08,21,12,27,20.80
2010,08,21,12,28,20.90
2010,08,21,12,29,21.00
2010,08,21,12,30,21.10
2010,08,21,12,31,21.10
2010,08,21,12,32,21.20
2010,08,21,12,33,21.30
2010,08,21,12,34,21.40
2010,08,21,12,35,21.40
2010,08,21,12,36,21.50
2010,08,21,12,37,21.60
2010,08,21,12,38,21.60
2010,08,21,12,39,21.60
2010,08,21,12,40,21.60
2010,08,21,12,41,21.60
2010,08,21,12,42,21.70
2010,08,21,12,43,21.70
2010,08,21,12,44,21.70
2010,08,21,12,45,21.80
2010,08,21,12,46,21.80
2010,08,21,12,47,21.80
2010,08,21,12,48,21.80
2010,08,21,12,49,21.90
2010,08,21,12,50,21.90
2010,08,21,12,51,22.00
2010,08,21,12,52,22.00
2010,08,21,12,53,22.00
2010,08,21,12,54,22.10
2010,08,21,12,55,22.10
2010,08,21,12,56,22.10
2010,08,21,12,57,22.10
2010,08,21,12,58,22.10
2010,08,21,12,59,22.10
2010,08,21,13,00,22.20
2010,08,21,13,01,22.20
2010,08,21,13,02,22.20
2010,08,21,13,03,22.20
2010,08,21,13,04,22.20
2010,08,21,13,05,22.20
2010,08,21,13,06,22.20
2010,08,21,13,07,22.20
2010,08,21,13,08,22.20
2010,08,21,13,09,22.20
2010,08,21,13,10,22.30
2010,08,21,13,11,22.30
2010,08,21,13,12,22.30
2010,08,21,13,13,22.30
2010,08,21,13,14,22.20
2010,08,21,13,15,22.20
2010,08,21,13,16,22.30
2010,08,21,13,17,22.30
2010,08,21,13,18,22.40
2010,08,21,13,19,22.40
2010,08,21,13,20,22.40
2010,08,21,13,21,22.40
2010,08,21,13,22,22.30
2010,08,21,13,23,22.20
2010,08,21,13,24,22.10
2010,08,21,13,25,22.10
2010,08,21,13,26,22.00
2010,08,21,13,27,22.00
2010,08,21,13,28,22.00
2010,08,21,13,29,22.00
2010,08,21,13,30,22.10
2010,08,21,13,31,22.20
2010,08,21,13,32,22.30
2010,08,21,13,33,22.40
2010,08,21,13,34,22.60
2010,08,21,13,35,22.60
2010,08,21,13,36,22.70
2010,08,21,13,37,22.80
2010,08,21,13,38,22.90
2010,08,21,13,39,23.00
2010,08,21,13,40,23.00
2010,08,21,13,41,23.00
2010,08,21,13,42,23.00
2010,08,21,13,43,22.90
2010,08,21,13,44,23.00
2010,08,21,13,45,23.00
2010,08,21,13,46,23.10
2010,08,21,13,47,23.20
2010,08,21,13,48,23.20
2010,08,21,13,49,23.20
2010,08,21,13,50,23.20
2010,08,21,13,51,23.30
2010,08,21,13,52,23.30
2010,08,21,13,53,23.30
2010,08,21,13,54,23.30
2010,08,21,13,55,23.50
2010,08,21,13,56,23.60
2010,08,21,13,57,23.80
2010,08,21,13,58,23.90
2010,08,21,13,59,24.00
2010,08,21,14,00,24.10
2010,08,21,14,01,24.10
2010,08,21,14,02,24.10
2010,08,21,14,03,24.10
2010,08,21,14,04,24.10
2010,08,21,14,05,24.00
2010,08,21,14,06,24.10
2010,08,21,14,07,24.10
2010,08,21,14,08,24.20
2010,08,21,14,09,24.20
2010,08,21,14,10,24.20
2010,08,21,14,11,24.20
2010,08,21,14,12,24.30
2010,08,21,14,13,24.20
2010,08,21,14,14,24.10
2010,08,21,14,15,24.00
2010,08,21,14,16,23.90
2010,08,21,14,17,23.90
2010,08,21,14,18,23.80
2010,08,21,14,19,23.80
2010,08,21,14,20,23.80
2010,08,21,14,21,23.70
2010,08,21,14,22,23.60
2010,08,21,14,23,23.50
2010,08,21,14,24,23.30
2010,08,21,14,25,23.10
2010,08,21,14,26,23.00
2010,08,21,14,27,22.90
2010,08,21,14,28,22.70
2010,08,21,14,29,22.60
2010,08,21,14,30,22.50
2010,08,21,14,31,22.40
2010,08,21,14,32,22.30
2010,08,21,14,33,22.20
2010,08,21,14,34,22.10
2010,08,21,14,35,22.00
2010,08,21,14,36,21.90
2010,08,21,14,37,21.90
2010,08,21,14,38,21.90
2010,08,21,14,39,21.80
2010,08,21,14,40,21.80
2010,08,21,14,41,21.80
2010,08,21,14,42,21.80
2010,08,21,14,43,21.80
2010,08,21,14,44,21.80
2010,08,21,14,45,21.80
2010,08,21,14,46,21.80
2010,08,21,14,47,21.80
2010,08,21,14,48,21.80
2010,08,21,14,49,21.80
2010,08,21,14,50,21.80
2010,08,21,14,51,21.90
2010,08,21,14,52,21.90
2010,08,21,14,53,21.90
2010,08,21,14,54,22.00
2010,08,21,14,55,22.00
2010,08,21,14,56,22.10
2010,08,21,14,57,22.10
2010,08,21,14,58,22.10
2010,08,21,14,59,22.20
2010,08,21,15,00,22.20
2010,08,21,15,01,22.20
2010,08,21,15,02,22.20
2010,08,21,15,03,22.20
2010,08,21,15,04,22.10
2010,08,21,15,05,22.10
2010,08,21,15,06,22.10
2010,08,21,15,07,22.10
2010,08,21,15,08,22.10
2010,08,21,15,09,22.10
2010,08,21,15,10,22.20
2010,08,21,15,11,22.20
2010,08,21,15,12,22.30
2010,08,21,15,13,22.30
2010,08,21,15,14,22.40
2010,08,21,15,15,22.30
2010,08,21,15,16,22.30
2010,08,21,15,17,22.30
2010,08,21,15,18,22.30
2010,08,21,15,19,22.30
2010,08,21,15,20,22.30
2010,08,21,15,21,22.20
2010,08,21,15,22,22.20
2010,08,21,15,23,22.10
2010,08,21,15,24,22.10
2010,08,21,15,25,22.00
2010,08,21,15,26,22.00
2010,08,21,15,27,21.90
2010,08,21,15,28,21.90
2010,08,21,15,29,21.90
2010,08,21,15,30,21.80
2010,08,21,15,31,21.80
2010,08,21,15,32,21.80
2010,08,21,15,33,21.80
2010,08,21,15,34,21.80
2010,08,21,15,35,21.80
2010,08,21,15,36,21.80
2010,08,21,15,37,21.90
2010,08,21,15,38,22.00
2010,08,21,15,39,22.00
2010,08,21,15,40,22.10
2010,08,21,15,41,22.10
2010,08,21,15,42,22.10
2010,08,21,15,43,22.10
2010,08,21,15,44,22.10
2010,08,21,15,45,22.20
2010,08,21,15,46,22.30
2010,08,21,15,47,22.30
2010,08,21,15,48,22.40
2010,08,21,15,49,22.40
2010,08,21,15,50,22.40
2010,08,21,15,51,22.50
2010,08,21,15,52,22.50
2010,08,21,15,53,22.40
2010,08,21,15,54,22.40
2010,08,21,15,55,22.50
2010,08,21,15,56,22.50
2010,08,21,15,57,22.50
2010,08,21,15,58,22.50
2010,08,21,15,59,22.60
2010,08,21,16,00,22.70
2010,08,21,16,01,22.80
2010,08,21,16,02,22.90
2010,08,21,16,03,23.00
2010,08,21,16,04,23.00
2010,08,21,16,05,23.10
2010,08,21,16,06,23.20
2010,08,21,16,07,23.20
2010,08,21,16,08,23.30
2010,08,21,16,09,23.30
2010,08,21,16,10,23.40
2010,08,21,16,11,23.40
2010,08,21,16,12,23.40
2010,08,21,16,13,23.50
2010,08,21,16,14,23.50
2010,08,21,16,15,23.60
2010,08,21,16,16,23.60
2010,08,21,16,17,23.60
2010,08,21,16,18,23.60
2010,08,21,16,19,23.60
2010,08,21,16,20,23.60
2010,08,21,16,21,23.50
2010,08,21,16,22,23.40
2010,08,21,16,23,23.30
2010,08,21,16,24,23.20
2010,08,21,16,25,23.10
2010,08,21,16,26,23.00
2010,08,21,16,27,22.90
2010,08,21,16,28,22.80
2010,08,21,16,29,22.80
2010,08,21,16,30,22.60
2010,08,21,16,31,22.50
2010,08,21,16,32,22.40
2010,08,21,16,33,22.30
2010,08,21,16,34,22.30
2010,08,21,16,35,22.30
2010,08,21,16,36,22.30
2010,08,21,16,37,22.30
2010,08,21,16,38,22.30
2010,08,21,16,39,22.30
2010,08,21,16,40,22.30
2010,08,21,16,41,22.40
2010,08,21,16,42,22.40
2010,08,21,16,43,22.40
2010,08,21,16,44,22.40
2010,08,21,16,45,22.40
2010,08,21,16,46,22.40
2010,08,21,16,47,22.30
2010,08,21,16,48,22.30
2010,08,21,16,49,22.30
2010,08,21,16,50,22.30
2010,08,21,16,51,22.30
2010,08,21,16,52,22.20
2010,08,21,16,53,22.20
2010,08,21,16,54,22.30
2010,08,21,16,55,22.30
2010,08,21,16,56,22.30
2010,08,21,16,57,22.30
2010,08,21,16,58,22.20
2010,08,21,16,59,22.20
2010,08,21,17,00,22.20
2010,08,21,17,01,22.20
2010,08,21,17,02,22.20
2010,08,21,17,03,22.20
2010,08,21,17,04,22.20
2010,08,21,17,05,22.10
2010,08,21,17,06,22.10
2010,08,21,17,07,22.10
2010,08,21,17,08,22.20
2010,08,21,17,09,22.20
2010,08,21,17,10,22.30
2010,08,21,17,11,22.30
2010,08,21,17,12,22.40
2010,08,21,17,13,22.40
2010,08,21,17,14,22.50
2010,08,21,17,15,22.50
2010,08,21,17,16,22.60
2010,08,21,17,17,22.50
2010,08,21,17,18,22.40
2010,08,21,17,19,22.40
2010,08,21,17,20,22.20
2010,08,21,17,21,22.20
2010,08,21,17,22,22.10
2010,08,21,17,23,22.00
2010,08,21,17,24,21.90
2010,08,21,17,25,21.90
2010,08,21,17,26,21.80
2010,08,21,17,27,21.70
2010,08,21,17,28,21.70